Regional Weather Roundup
Issued by NWS

Home | Current Version | Previous Version | Text Only | Print | Product List | Glossary On
Versions: 1 2 3 4 5 6 7 8 9 10 11 12 13 14 15 16 17 18 19 20 21 22 23 24 25 26 27 28 29 30 31 32 33 34 35 36 37 38 39 40 41 42 43 44 45 46 47 48 49 50
000
ASUS44 KOUN 220610
RWROK

WEATHER ROUNDUP FOR OKLAHOMA
NATIONAL WEATHER SERVICE NORMAN OK
100 AM CDT FRI AUG 22 2014

NOTE: "FAIR" INDICATES FEW OR NO CLOUDS BELOW 12,000 FEET WITH NO
      SIGNIFICANT WEATHER AND/OR OBSTRUCTIONS TO VISIBILITY.

OKZ001>007-009>012-014-015-017-220700-
NORTHWEST OKLAHOMA AND THE PANHANDLE

CITY           SKY/WX    TMP DP  RH WIND       PRES   REMARKS
GAGE           FAIR      84  64  50 S16       29.93S
6HR MIN TEMP:  84; 6HR MAX TEMP:  98;

ENID/WOODRING  FAIR      79  72  78 SE7       29.91R
$$

OKZ016-021>023-033>039-044-045-220700-
SOUTHWEST OKLAHOMA

CITY           SKY/WX    TMP DP  RH WIND       PRES   REMARKS
LAWTON/REGL    FAIR      84  60  44 S10       29.94S
6HR MIN TEMP:  84; 6HR MAX TEMP:  98;

LAWTON/FT SILL FAIR      84  62  46 S10       29.93S
FREDERICK      FAIR      85  58  39 S10       29.91S
CLINTON        FAIR      86  61  42 S18       29.96S
HOBART         FAIR      86  59  39 S14       29.94S
ALTUS AFB      CLEAR     86  61  43 S13       29.93S
$$

OKZ018>020-024>031-220700-
CENTRAL OKLAHOMA

CITY           SKY/WX    TMP DP  RH WIND       PRES   REMARKS
OKLAHOMA CITY  FAIR      82  65  56 S12       29.95S
6HR MIN TEMP:  79; 6HR MAX TEMP:  93;

OKC/WILEY POST FAIR      84  65  52 S17       29.94S
OKC/TINKER AFB FAIR      82  67  58 S12       29.95S
STILLWATER     FAIR      84  68  58 S15       29.93S
GUTHRIE        FAIR      83  68  60 S10       29.93S
$$

OKZ008-013-054>072-220700-
NORTHEAST OKLAHOMA

CITY           SKY/WX    TMP DP  RH WIND       PRES   REMARKS
TULSA          FAIR      84  71  65 S13       29.95R
6HR MIN TEMP:  84; 6HR MAX TEMP:  92;

TULSA/JONES    FAIR      83  71  67 S6        29.96R
PONCA CITY     FAIR      84  69  60 SE15      29.93R
BARTLESVILLE   FAIR      80  72  76 S5        29.96R
MUSKOGEE       FAIR      77  72  84 SE6       29.98S
$$

OKZ032-040>043-046>053-073>077-220700-
SOUTH CENTRAL/SOUTHEAST OKLAHOMA

CITY           SKY/WX    TMP DP  RH WIND       PRES   REMARKS
ARDMORE/DWNTWN FAIR      81  66  61 S3        29.97S
MCALESTER      FAIR      84  69  60 S10G17    29.99S
$$




USA.gov is the U.S. government's official web portal to all federal, state and local government web resources and services.